Tracking 35274 objects as of 10-Sep-2026
HD Live streaming from Space Station
objects crossing your sky now

STARLINK-33789

Track STARLINK-33789 now!
10-day predictions
STARLINK-33789 is classified as:


NORAD ID: 63657
Int'l Code: 2025-083Z
Launch date: April 25, 2025
Source: United States (US)
Launch site: AIR FORCE EASTERN TEST RANGE (AFETR)
Your satellite tracking list
Your tracking list is empty




NASA's NSSDC Master Catalog

Two Line Element Set (TLE):
1 63657U 25083Z   26252.72172603  .00011268  00000-0  41808-3 0  9992
2 63657  43.0020  45.7631 0001225 259.7495 100.3219 15.27601044 78242
Source of the keplerian elements: AFSPC